Hourly Weather Rutvyanka

Today, 21 April, Wednesday

Time Temperature Precipitation Wind Pressure Humidity
00:00 +4°C° 0 mm 2 mps 741 mmHg 92%
01:00 +4°C° 0 mm 2 mps 741 mmHg 91%
02:00 +4°C° 0 mm 2 mps 741 mmHg 91%
03:00 +5°C° 0.1 mm 2 mps 741 mmHg 91%
04:00 +5°C° 0.1 mm 2 mps 741 mmHg 90%
05:00 +5°C° 0.1 mm 2 mps 741 mmHg 90%
06:00 +6°C° 0.1 mm 2 mps 742 mmHg 85%
07:00 +7°C° 0.1 mm 3 mps 742 mmHg 80%
08:00 +7°C° 0.1 mm 3 mps 742 mmHg 75%
09:00 +8°C° 0.1 mm 3 mps 743 mmHg 73%
10:00 +8°C° 0.1 mm 4 mps 743 mmHg 70%
11:00 +8°C° 0.1 mm 4 mps 743 mmHg 67%
12:00 +10°C° 0.1 mm 4 mps 743 mmHg 67%
13:00 +10°C° 0.1 mm 4 mps 743 mmHg 67%
14:00 +10°C° 0.1 mm 4 mps 743 mmHg 67%
15:00 +11°C° 0.1 mm 4 mps 743 mmHg 66%
16:00 +11°C° 0.1 mm 3 mps 743 mmHg 65%
17:00 +12°C° 0.1 mm 3 mps 743 mmHg 65%
18:00 +10°C° 0 mm 3 mps 743 mmHg 71%
19:00 +9°C° 0 mm 3 mps 743 mmHg 78%
20:00 +8°C° 0 mm 3 mps 743 mmHg 84%
21:00 +7°C° 0 mm 3 mps 743 mmHg 86%
22:00 +7°C° 0 mm 3 mps 743 mmHg 87%
23:00 +7°C° 0 mm 3 mps 743 mmHg 88%

Tomorrow, 22 April, Thursday

Time Temperature Precipitation Wind Pressure Humidity
00:00 +7°C° 0 mm 3 mps 744 mmHg 88%
01:00 +5°C° 0 mm 3 mps 744 mmHg 88%
02:00 +5°C° 0 mm 4 mps 744 mmHg 88%
03:00 +6°C° 0.2 mm 4 mps 744 mmHg 88%
04:00 +6°C° 0.2 mm 4 mps 744 mmHg 89%
05:00 +6°C° 0.2 mm 4 mps 744 mmHg 89%
06:00 +7°C° 0 mm 4 mps 744 mmHg 85%
07:00 +9°C° 0 mm 5 mps 744 mmHg 80%
08:00 +10°C° 0 mm 5 mps 745 mmHg 75%
09:00 +12°C° 0.1 mm 5 mps 745 mmHg 69%
10:00 +14°C° 0.1 mm 5 mps 745 mmHg 62%
11:00 +15°C° 0.1 mm 6 mps 745 mmHg 56%
12:00 +15°C° 0.6 mm 6 mps 745 mmHg 57%
13:00 +15°C° 0.6 mm 6 mps 745 mmHg 59%
14:00 +15°C° 0.6 mm 6 mps 744 mmHg 60%
15:00 +14°C° 0.4 mm 5 mps 744 mmHg 63%
16:00 +14°C° 0.4 mm 5 mps 744 mmHg 66%
17:00 +14°C° 0.4 mm 5 mps 744 mmHg 70%
18:00 +12°C° 0.7 mm 4 mps 744 mmHg 77%
19:00 +10°C° 0.7 mm 4 mps 745 mmHg 84%
20:00 +9°C° 0.7 mm 3 mps 745 mmHg 92%
21:00 +9°C° 0.3 mm 3 mps 745 mmHg 92%
22:00 +8°C° 0.3 mm 3 mps 745 mmHg 93%
23:00 +8°C° 0.3 mm 2 mps 745 mmHg 94%

Day after tomorrow, 23 April, Friday

Time Temperature Precipitation Wind Pressure Humidity
00:00 +8°C° 0.1 mm 3 mps 745 mmHg 92%
01:00 +7°C° 0.1 mm 3 mps 745 mmHg 91%
02:00 +7°C° 0.1 mm 3 mps 745 mmHg 90%
03:00 +6°C° 0.5 mm 2 mps 745 mmHg 89%
04:00 +6°C° 0.5 mm 2 mps 745 mmHg 88%
05:00 +5°C° 0.5 mm 2 mps 746 mmHg 87%
06:00 +6°C° 0.4 mm 1 mps 746 mmHg 85%
07:00 +7°C° 0.4 mm 1 mps 746 mmHg 83%
08:00 +7°C° 0.4 mm 1 mps 746 mmHg 81%
09:00 +6°C° 0.4 mm 2 mps 746 mmHg 76%
10:00 +7°C° 0.4 mm 2 mps 746 mmHg 72%
11:00 +7°C° 0.4 mm 2 mps 746 mmHg 67%
12:00 +7°C° 0.1 mm 3 mps 746 mmHg 63%
13:00 +8°C° 0.1 mm 3 mps 746 mmHg 60%
14:00 +8°C° 0.1 mm 3 mps 746 mmHg 56%
15:00 +8°C° 0.1 mm 3 mps 746 mmHg 57%
16:00 +8°C° 0.1 mm 3 mps 745 mmHg 58%
17:00 +8°C° 0.1 mm 3 mps 745 mmHg 59%
18:00 +7°C° 0.2 mm 3 mps 745 mmHg 65%
19:00 +5°C° 0.2 mm 3 mps 746 mmHg 70%
20:00 +5°C° 0.2 mm 2 mps 746 mmHg 76%
21:00 +3°C° 0.1 mm 3 mps 746 mmHg 77%
22:00 +3°C° 0.1 mm 3 mps 746 mmHg 79%
23:00 +2°C° 0.1 mm 3 mps 746 mmHg 80%

24 April, Saturday

Time Temperature Precipitation Wind Pressure Humidity
00:00 +1°C° 0 mm 3 mps 746 mmHg 82%
01:00 +1°C° 0 mm 3 mps 746 mmHg 84%
02:00 0°C° 0 mm 3 mps 746 mmHg 86%
03:00 0°C° 0 mm 3 mps 746 mmHg 88%
04:00 -1°C° 0 mm 3 mps 746 mmHg 89%
05:00 -1°C° 0 mm 3 mps 746 mmHg 91%
06:00 -1°C° 0 mm 4 mps 746 mmHg 84%
07:00 +1°C° 0 mm 5 mps 746 mmHg 77%
08:00 +2°C° 0 mm 6 mps 746 mmHg 70%
09:00 +3°C° 0 mm 6 mps 746 mmHg 63%
10:00 +4°C° 0 mm 6 mps 746 mmHg 56%
11:00 +5°C° 0 mm 7 mps 746 mmHg 49%
12:00 +5°C° 0.1 mm 6 mps 746 mmHg 50%
13:00 +5°C° 0.1 mm 6 mps 746 mmHg 52%
14:00 +5°C° 0.1 mm 6 mps 746 mmHg 53%
15:00 +5°C° 0.1 mm 6 mps 746 mmHg 54%
16:00 +6°C° 0.1 mm 5 mps 746 mmHg 56%
17:00 +6°C° 0.1 mm 5 mps 746 mmHg 57%
18:00 +4°C° 0 mm 4 mps 746 mmHg 64%
19:00 +3°C° 0 mm 4 mps 746 mmHg 70%
20:00 +2°C° 0 mm 3 mps 747 mmHg 77%
21:00 +1°C° 0 mm 3 mps 747 mmHg 78%
22:00 0°C° 0 mm 4 mps 747 mmHg 79%
23:00 0°C° 0 mm 4 mps 747 mmHg 80%

25 April, Sunday

Time Temperature Precipitation Wind Pressure Humidity
00:00 -1°C° 0 mm 4 mps 746 mmHg 82%
01:00 0°C° 0 mm 3 mps 746 mmHg 84%
02:00 -1°C° 0 mm 3 mps 746 mmHg 86%
03:00 -1°C° 0 mm 3 mps 746 mmHg 87%
04:00 -2°C° 0 mm 4 mps 746 mmHg 89%
05:00 -1°C° 0 mm 4 mps 746 mmHg 90%
06:00 0°C° 0 mm 4 mps 746 mmHg 83%
07:00 +1°C° 0 mm 5 mps 746 mmHg 76%
08:00 +2°C° 0 mm 5 mps 746 mmHg 69%
09:00 +3°C° 0 mm 5 mps 746 mmHg 60%
10:00 +4°C° 0 mm 6 mps 746 mmHg 52%
11:00 +5°C° 0 mm 6 mps 747 mmHg 44%
12:00 +5°C° 0 mm 6 mps 746 mmHg 45%
13:00 +5°C° 0 mm 6 mps 746 mmHg 45%
14:00 +5°C° 0 mm 7 mps 746 mmHg 46%
15:00 +5°C° 0 mm 6 mps 746 mmHg 47%
16:00 +5°C° 0 mm 6 mps 746 mmHg 49%
17:00 +6°C° 0 mm 5 mps 746 mmHg 50%
18:00 +4°C° 0 mm 4 mps 746 mmHg 57%
19:00 +3°C° 0 mm 3 mps 746 mmHg 64%
20:00 +1°C° 0 mm 3 mps 746 mmHg 72%
21:00 +1°C° 0 mm 3 mps 746 mmHg 74%
22:00 +1°C° 0 mm 3 mps 746 mmHg 76%
23:00 0°C° 0 mm 3 mps 746 mmHg 78%

26 April, Monday

Time Temperature Precipitation Wind Pressure Humidity
00:00 0°C° 0 mm 3 mps 746 mmHg 80%
01:00 0°C° 0 mm 3 mps 746 mmHg 81%
02:00 0°C° 0 mm 3 mps 746 mmHg 82%
03:00 -1°C° 0 mm 3 mps 746 mmHg 85%
04:00 -2°C° 0 mm 3 mps 746 mmHg 88%
05:00 -2°C° 0 mm 2 mps 746 mmHg 91%
06:00 -1°C° 0 mm 3 mps 746 mmHg 83%
07:00 +1°C° 0 mm 3 mps 746 mmHg 76%
08:00 +3°C° 0 mm 4 mps 746 mmHg 68%
09:00 +4°C° 0 mm 4 mps 746 mmHg 62%
10:00 +5°C° 0 mm 4 mps 746 mmHg 55%
11:00 +6°C° 0 mm 5 mps 746 mmHg 48%
12:00 +6°C° 0.1 mm 5 mps 746 mmHg 47%
13:00 +6°C° 0.1 mm 5 mps 746 mmHg 46%
14:00 +7°C° 0.1 mm 6 mps 746 mmHg 45%
15:00 +5°C° 0 mm 6 mps 746 mmHg 46%
16:00 +6°C° 0 mm 5 mps 746 mmHg 48%
17:00 +6°C° 0 mm 5 mps 746 mmHg 50%
18:00 +4°C° 0 mm 4 mps 746 mmHg 56%
19:00 +3°C° 0 mm 4 mps 746 mmHg 63%
20:00 +1°C° 0 mm 3 mps 746 mmHg 70%
21:00 +1°C° 0 mm 3 mps 746 mmHg 73%
22:00 0°C° 0 mm 3 mps 747 mmHg 76%
23:00 0°C° 0 mm 3 mps 747 mmHg 80%
Show more